User: anonymous   Login
Location: Oshawa
(43.9000°N, 78.8670°W)
Time: 18:10:11
(UTC-04:00)
Language:

CZ-4C R/B - Orbit

View from above orbital plane
View from above orbital plane
View from above satellite
View from above satellite

Ground track
Ground track

The orbit data is extracted from the following two-line orbital elements,

1 32290U 07055B   15086.17483249  .00013579  00000-0  46707-3 0  9993
2 32290 097.5453 168.4078 0081390 137.0055 278.2940 15.27009209407386
Epoch (UTC): 27 March 2015 04:11:45
Eccentricity: 0.0081390
inclination: 97.5453°
perigee height: 429 km
apogee height: 540 km
right ascension of ascending node: 168.4078°
argument of perigee: 137.0055°
revolutions per day: 15.27009209
mean anomaly at epoch: 278.2940°
orbit number at epoch: 40738

The dashed part of the orbit path shows where the satellite is in the earth's shadow,  

DLR